Location: Breitenfeld
(46.8500°N, 15.6333°E)
Time: 00:15:43
(UTC+00:00)

Transit 4B - Pass Details

Date: 07 June 2022
Orbit: 948 x 1097 km, 32.4° (Epoch: 03 July)

Event Time Altitude Azimuth Distance (km) Brightness Sun altitude
Exits shadow 00:44:04 19° 175° (S) 2,233 9.9 -16.3°
Drops below altitude 10° 00:47:07 10° 149° (SSE) 2,774 10.6 -16.1°
Sets 00:50:28 0° 133° (SE) 3,695 11.4 -15.8°
